Voltar ao catálogo

STARLINK-31504

AtivoComunicaçõesVLEO
NORAD 59303·PAYLOAD·🇺🇸 United States

Lançado Mar 24, 2024 de Cape Canaveral Space Force Station

Loading…

Próximas Passagens (próximas 24 horas)

TLE

AtualizadoSource: CelesTrak SupGP

Época: Sep 15, 2026, 02:02 UTC

1 59303C 24056H   26258.08520833 -.00020980  00000+0 -76000-3 0  2583
2 59303  42.9994 241.2158 0001215 264.9395 273.5029 15.27583873    17

Acompanhe STARLINK-31504 em tempo real com AllMySat

Download on the App Store